Location: New York
(40.7127°N, 74.0060°W)
Time: 09:59:03
(UTC-05:00)

BlueWalker 3 - Pass Details

Date: 29 November 2023
Orbit: 485 x 499 km, 53.2° (Epoch: 02 March)

Event Time Altitude Azimuth Distance (km) Brightness Sun altitude
Exits shadow 05:00:41 16° 8° (N) 1,373 4.1 -21.8°
Drops below altitude 10° 05:03:28 10° 55° (NE) 1,695 5.2 -21.3°
Enters shadow 05:59:33 -73° 285° (WNW) 12,702 8.9 -11.0°
Maximum altitude 06:40:07 51° 35° (NE) 626 2.5 -3.9°
